World > North America > United States > South Dakota > Hiles  

Hiles, SD Hourly Weather Updates

Feedback E-mail the Weather

Quick Clicks

Hiles, SD Weather Maps

°F °C°F °C
Hiles Weather Map
UTC Time: 5/27/2024, 06:59
Your Time:

Hiles, SD Regional Weather

Expires:202405270700;;945885
ASUS43 KFSD 270610
RWRSD 

WEATHER ROUNDUP FOR SOUTH DAKOTA
NATIONAL WEATHER SERVICE SIOUX FALLS SD
100 AM CDT MON MAY 27 2024

NOTE: "FAIR" INDICATES FEW OR NO CLOUDS BELOW 12,000 FEET WITH NO
SIGNIFICANT WEATHER AND/OR OBSTRUCTIONS TO VISIBILITY.



SDZ012>016-024>037-041>051-057-063-072>074-270700-
SOUTHWEST AND SOUTH CENTRAL SOUTH DAKOTA
  
CITY           SKY/WX    TMP DP  RH WIND       PRES   REMARKS
RAPID CTY ARPT MOCLDY    50  46  86 W6        29.96S TC  10           
PIERRE         PTCLDY    51  49  92 NW9       29.85R TC  11           
CUSTER         PTCLDY    42  36  79 NW3       30.01R TC   6           
ELLSWORTH AFB  PTCLDY    50  46  86 W8        29.93S TC  10           
PHILIP         MOCLDY    52  51  97 CALM      29.90R TC  11           
PINE RIDGE     CLOUDY    48  45  89 NW7       30.00R TC   9           
SPEARFISH      CLEAR     48  41  76 W6        29.99S TC   9           
WINNER         CLEAR     53  49  86 CALM      29.88R TC  12           
$$
 

SKY/WX - Weather  TMP - Temperature  DP - Dew Point  RH - Humidity
WIND - Wind Direction/Speed PRES - Barometric Pressure VSB - Visibility
WCI - Wind Chill Index E13G22 Wind - East Wind 13 mph/Gusts of 22 mph

Trending Headlines

Trending Entertainment Headlines

Hiles Radar Loop

Use the map search tool if you want to place a location marker on the radar map...

Hiles Quick Facts

National Two Day Weather Forecast


E-mail the Hiles Weather Forecast

Voice your opinion or tell us about page issues...